Regional Weather Roundup
Issued by NWS

Home | Current Version | Previous Version | Graphics & Text | Print | Product List | Glossary Off
Versions: 1 2 3 4 5 6 7 8 9 10 11 12 13 14 15 16 17 18 19 20 21 22 23 24 25 26 27 28 29 30 31 32 33 34 35 36 37 38 39 40 41 42 43 44 45 46 47 48 49 50

000
ASUS43 KDMX 040807
RWRIA

WEATHER ROUNDUP FOR IOWA
NATIONAL WEATHER SERVICE DES MOINES IA
300 AM CDT FRI SEP 04 2015

NOTE: "FAIR" INDICATES FEW OR NO CLOUDS BELOW 12,000 FEET WITH NO
SIGNIFICANT WEATHER AND/OR OBSTRUCTIONS TO VISIBILITY.

* - THESE STATIONS ARE NOT NWS STATIONS...THUS NOT UNDER NWS
QUALITY CONTROL.  THEY ALSO DO NOT REPORT WEATHER SUCH
AS PRECIPITATION OR FOG.

IAZ001>003-012>014-020>022-031>034-043>046-040900-
   NORTHWEST IOWA

CITY           SKY/WX    TMP DP  RH WIND       PRES   REMARKS
CARROLL *      CLEAR     70  70 100 S8        29.90R
CHEROKEE *       N/A     72  70  94 S5        29.86S
DENISON *      CLEAR     73  68  83 VRB6G16   29.86S
LE MARS *      CLEAR     75  70  83 S8        29.84S
ORANGE CITY *  CLEAR     73  70  88 S8        29.85S
SHELDON *      CLEAR     73  70  88 S12       29.84S
SIOUX CITY     PTCLDY    74  68  81 SE9       29.82S
SPENCER        FOG       73  69  87 SE8       29.88R VSB 3/4
STORM LAKE *   CLEAR     72  70  94 S8        29.89S
$$

IAZ055>058-069>071-079>083-090>094-040900-
   SOUTHWEST IOWA

CITY           SKY/WX    TMP DP  RH WIND       PRES   REMARKS
ATLANTIC *     CLEAR     73  68  83 S6        29.90S
AUDUBON *      CLEAR     72  66  83 CALM      29.92R
CLARINDA *     CLEAR     70  70 100 S5        29.92S
COUNCIL BLFS *   N/A     72  68  88 S10       29.88S
CRESTON *      CLEAR     72  68  88 S9        29.94F
LAMONI         CLEAR     72  67  84 S7        29.94S
RED OAK *      CLEAR     72  68  88 S6        29.90S
SHENANDOAH *   CLEAR     73  68  83 CALM      29.90S
$$

IAZ047>049-059>061-072>074-084-040900-
   CENTRAL IOWA

CITY           SKY/WX    TMP DP  RH WIND       PRES   REMARKS
AMES           PTCLDY    70  68  93 S5        29.92S
ANKENY *       CLEAR     72  70  94 CALM      29.92S
CHARITON *     CLEAR     70  68  94 SE5       29.95S
DES MOINES     PTCLDY    74  68  81 S8        29.92F
GRINNELL*      MOCLDY    72  68  88 CALM      29.95S
KNOXVILLE *    PTCLDY    72  68  88 S7        29.92F
MARSHALLTOWN   PTCLDY    72  69  90 S6        29.93S
PELLA *        PTCLDY    73  72  94 S3        29.94S
PERRY *          N/A     72  70  94 S6        29.92S
$$

IAZ004>006-015-016-023>025-035-036-040900-
   NORTH CENTRAL IOWA

CITY           SKY/WX    TMP DP  RH WIND       PRES   REMARKS
ALGONA *       CLEAR     75  70  83 S13G18    29.90S
CLARION *      CLEAR     72  70  94 S8        29.92R
ESTHERVILLE    PTCLDY    71  70  96 S8        29.88S
FORT DODGE *   PTCLDY    75  66  73 S8        29.92R
MASON CITY     PTCLDY    70  69  97 SE5       29.93F
FOREST CITY *  CLEAR     70  70 100 SE7       29.92S
IOWA FALLS *     N/A     73  70  88 S6        29.94S
$$

IAZ007>011-017>019-026>030-037>042-050>054-066-040900-
   NORTHEAST IOWA

CITY           SKY/WX    TMP DP  RH WIND       PRES   REMARKS
CEDAR RAPIDS   PTCLDY    71  71 100 CALM      29.93S
CHARLES CITY * CLOUDY    72  72 100 SE5       29.95R
CLINTON *      CLEAR     70  66  88 E3        29.97S
DECORAH *      CLOUDY    73  73 100 E6        29.95S FOG
DUBUQUE        FOG       70  70 100 NE5       29.97R VSB 1/4
MONTICELLO *   PTCLDY    68  68 100 CALM      29.95R
OELWEIN *        N/A     70  70 100 SE5       29.96R
WATERLOO       MOCLDY    75  68  78 CALM      29.92S
$$

IAZ064-065-067-068-078-040900-
   EAST CENTRAL IOWA

CITY           SKY/WX    TMP DP  RH WIND       PRES   REMARKS
DAVENPORT      CLEAR     70  69  97 SW3       29.95S
IOWA CITY      PTCLDY    72  69  90 CALM      29.94S
MT. PLEASANT * PTCLDY    72  66  83 CALM      29.95F
MUSCATINE *    CLEAR     72  70  94 CALM      29.94S
QUAD CITIES    PTCLDY    73  69  87 CALM      29.94S
$$

IAZ062-063-075>077-085>089-095>099-040900-
   SOUTHEAST IOWA

CITY           SKY/WX    TMP DP  RH WIND       PRES   REMARKS
BURLINGTON     CLEAR     70  69  97 CALM      29.95S
FAIRFIELD *    CLEAR     70  66  88 S3        29.95S
FORT MADISON * MOCLDY    72  70  94 CALM      29.96S
KEOKUK *       CLEAR     75  68  78 SW3       29.95S
OSKALOOSA *      N/A     70  66  88 S3        29.94F
CENTERVILLE *  CLEAR     68  66  94 S3        29.97S
OTTUMWA        PTCLDY    72  68  87 SW6       29.93F
WASHINGTON *     N/A    N/A N/A N/A MISG        N/A
$$

ABBREVIATIONS USED IN REMARKS
   TC - TEMPERATURES IN CELSIUS
  WCI - WIND CHILL INDEX
   HX - HEAT INDEX
  VSB - VISIBILITY
$$



USA.gov is the U.S. government's official web portal to all federal, state and local government web resources and services.